Regional Weather Roundup
Issued by NWS

Home | Current Version | Previous Version | Graphics & Text | Print | Product List | Glossary On
Versions: 1 2 3 4 5 6 7 8 9 10 11 12 13 14 15 16 17 18 19 20 21 22 23 24 25 26 27 28 29 30 31 32 33 34 35 36 37 38 39 40 41 42 43 44 45 46 47 48 49 50
000
ASUS43 KTOP 031708
RWRKS

WEATHER ROUNDUP FOR KANSAS
NATIONAL WEATHER SERVICE GOODLAND KS
1100 AM CST TUE MAR 03 2015

NOTE:  "FAIR" INDICATES FEW OR NO CLOUDS BELOW 12,000 FEET WITH NO
SIGNIFICANT WEATHER AND/OR OBSTRUCTIONS TO VISIBILITY.

KSZ001>006-013>018-027>032-041>047-031800-
NORTHWEST KANSAS

CITY           SKY/WX    TMP DP  RH WIND       PRES   REMARKS
GOODLAND       CLOUDY    29  23  78 N25G32    29.88R WCI  14
HAYS           PTSUNNY   39  23  52 N20G28    29.87R WCI  30
HILL CITY      CLOUDY    36  27  69 N22G28    29.88R WCI  25
RUSSELL        MOSUNNY   40  27  59 NW22      29.85R WCI  30
$$

KSZ061>065-074>080-084>089-031800-
SOUTHWEST KANSAS

CITY           SKY/WX    TMP DP  RH WIND       PRES   REMARKS
DODGE CITY     CLOUDY    39  30  70 N20G26    29.85R WCI  29
ELKHART          N/A     51  32  48 W8          N/A
GARDEN CITY    CLOUDY    36  30  79 N20G26    29.85R WCI  25
GREAT BEND     MOSUNNY   43  28  56 N18       29.86R
LIBERAL        CLOUDY    45  37  76 SW12      29.81R
PRATT          CLOUDY    45  32  61 N16       29.86R
$$

KSZ066>073-081>083-090>101-031800-
SOUTHEAST KANSAS

CITY           SKY/WX    TMP DP  RH WIND       PRES   REMARKS
CHANUTE        CLOUDY    46  42  86 SW14G22   29.83R
COFFEYVILLE    CLOUDY    44  41  89 S18G25    29.85F
HUTCHINSON     CLOUDY    49  34  56 NW15      29.83R
MEDICINE LODGE   N/A     50  38  63 NW10      29.83R
NEWTON         PTSUNNY   45  36  70 W15G21    29.83R
PARSONS        CLOUDY    45  43  93 S10G21    29.85S
WICHITA INTL   CLOUDY    44  37  76 W10       29.84R
WICHITA JABRA  PTSUNNY   44  37  76 W10       29.83R
WICHITA MCCONL CLOUDY    43  38  82 SW15      29.83R
WINFIELD       CLOUDY    45  40  82 W9        29.85R
$$

KSZ007>012-019>026-033>040-048>060-102>105-031800-
NORTHEAST KANSAS

CITY           SKY/WX    TMP DP  RH WIND       PRES   REMARKS
CONCORDIA      PTSUNNY   41  27  57 N18G30    29.83R
EMPORIA        PTSUNNY   48  38  68 W16G31    29.79R
LAWRENCE       CLOUDY    47  37  68 W14       29.77R
MANHATTAN      CLOUDY    45  34  65 NW8G16    29.81R
MARYSVILLE     PTSUNNY   41  30  65 NW23G30   29.80R
OLATHE IND     CLOUDY    45  40  82 SW17      29.78R
OLATHE EXE     CLOUDY    44  40  85 W15       29.76R
SALINA         PTSUNNY   44  29  55 NW21      29.84R
TOPEKA BILLARD CLOUDY    48  36  63 W12G24    29.78R
TOPEKA FORBES  CLOUDY    48  37  65 W16       29.77R
$$



USA.gov is the U.S. government's official web portal to all federal, state and local government web resources and services.